Time,TemperatureF,DewpointF,PressureIn,WindDirection,WindDirectionDegrees,WindSpeedMPH,WindSpeedGustMPH,Humidity,HourlyPrecipIn,Conditions,Clouds,dailyrainin,SolarRadiationWatts/m^2,SoftwareType,DateUTC
2013-07-04 16:30:00,77.8,69.2,29.92,ENE,68,1.0,6.0,75,0.35,,---,0.35,698.00,VWS V14.00,2013-07-04 21:30:00,
2013-07-04 17:10:00,79.7,69.1,29.89,East,98,2.0,3.0,70,0.00,,---,0.35,457.00,VWS V14.00,2013-07-04 22:10:00,
2013-07-04 17:14:00,79.9,68.8,29.89,ENE,68,1.0,3.0,69,0.00,,---,0.35,448.00,VWS V14.00,2013-07-04 22:14:00,
2013-07-04 17:18:00,80.8,68.8,29.89,ENE,74,2.0,3.0,67,0.00,,---,0.35,448.00,VWS V14.00,2013-07-04 22:18:00,
2013-07-04 17:22:00,81.1,68.2,29.89,ENE,74,3.0,4.0,65,0.00,,---,0.35,341.00,VWS V14.00,2013-07-04 22:22:00,
2013-07-04 17:26:00,81.2,68.8,29.89,ENE,76,3.0,4.0,66,0.00,,---,0.35,387.00,VWS V14.00,2013-07-04 22:26:00,
2013-07-04 17:30:00,81.3,68.9,29.89,ESE,107,1.0,4.0,66,0.00,,---,0.35,369.00,VWS V14.00,2013-07-04 22:30:00,
2013-07-04 17:34:00,81.4,69.4,29.89,ENE,78,0.0,4.0,67,0.00,,---,0.35,359.00,VWS V14.00,2013-07-04 22:34:00,
2013-07-04 17:38:00,81.5,69.5,29.89,ENE,63,2.0,4.0,67,0.00,,---,0.35,346.00,VWS V14.00,2013-07-04 22:38:00,
2013-07-04 17:42:00,81.6,67.8,29.89,ENE,73,1.0,4.0,63,0.00,,---,0.35,338.00,VWS V14.00,2013-07-04 22:42:00,
2013-07-04 17:46:00,81.8,68.9,29.89,ESE,104,1.0,4.0,65,0.00,,---,0.35,320.00,VWS V14.00,2013-07-04 22:46:00,
2013-07-04 17:50:00,82.0,68.6,29.89,East,91,1.0,4.0,64,0.00,,---,0.35,309.00,VWS V14.00,2013-07-04 22:50:00,
2013-07-04 17:54:00,82.1,69.2,29.89,NE,42,3.0,4.0,65,0.00,,---,0.35,288.00,VWS V14.00,2013-07-04 22:54:00,
2013-07-04 17:58:00,82.3,68.9,29.89,ENE,76,0.0,4.0,64,0.00,,---,0.35,279.00,VWS V14.00,2013-07-04 22:58:00,
2013-07-04 18:00:00,82.3,68.5,29.88,East,99,0.0,4.0,63,0.00,,---,0.35,279.00,VWS V14.00,2013-07-04 23:00:00,
2013-07-04 18:02:00,82.4,69.5,29.88,East,96,0.0,2.0,65,0.00,,---,0.35,91.00,VWS V14.00,2013-07-04 23:02:00,
2013-07-04 18:06:00,82.3,68.5,29.88,East,84,0.0,2.0,63,0.00,,---,0.35,83.00,VWS V14.00,2013-07-04 23:06:00,
2013-07-04 18:10:00,82.2,68.4,29.88,East,83,0.0,2.0,63,0.00,,---,0.35,90.00,VWS V14.00,2013-07-04 23:10:00,
2013-07-04 18:14:00,82.2,69.3,29.89,East,89,0.0,2.0,65,0.00,,---,0.35,95.00,VWS V14.00,2013-07-04 23:14:00,
2013-07-04 18:18:00,82.1,68.7,29.89,East,90,2.0,2.0,64,0.00,,---,0.35,104.00,VWS V14.00,2013-07-04 23:18:00,
2013-07-04 18:22:00,82.1,69.6,29.89,SE,128,2.0,2.0,66,0.00,,---,0.35,121.00,VWS V14.00,2013-07-04 23:22:00,
2013-07-04 18:26:00,82.0,69.5,29.89,SE,130,2.0,2.0,66,0.00,,---,0.35,172.00,VWS V14.00,2013-07-04 23:26:00,
2013-07-04 18:30:00,82.0,70.0,29.89,SE,138,3.0,4.0,67,0.00,,---,0.35,211.00,VWS V14.00,2013-07-04 23:30:00,
2013-07-04 18:35:00,81.9,69.4,29.89,SE,139,2.0,3.0,66,0.00,,---,0.35,227.00,VWS V14.00,2013-07-04 23:35:00,
2013-07-04 18:39:00,82.0,70.0,29.89,SE,132,1.0,3.0,67,0.00,,---,0.35,227.00,VWS V14.00,2013-07-04 23:39:00,
2013-07-04 18:43:00,81.9,69.0,29.89,SE,132,1.0,3.0,65,0.00,,---,0.35,179.00,VWS V14.00,2013-07-04 23:43:00,
2013-07-04 18:47:00,81.9,69.9,29.89,SE,131,1.0,3.0,67,0.00,,---,0.35,158.00,VWS V14.00,2013-07-04 23:47:00,
2013-07-04 18:51:00,81.9,68.5,29.89,ESE,105,2.0,3.0,64,0.00,,---,0.35,139.00,VWS V14.00,2013-07-04 23:51:00,
2013-07-04 18:55:00,81.8,69.3,29.89,SE,130,0.0,3.0,66,0.00,,---,0.35,132.00,VWS V14.00,2013-07-04 23:55:00,
2013-07-04 18:59:00,81.7,69.2,29.89,SE,126,0.0,3.0,66,0.00,,---,0.35,114.00,VWS V14.00,2013-07-04 23:59:00,
2013-07-04 19:00:00,81.7,68.8,29.89,SE,126,0.0,3.0,65,0.00,,---,0.35,111.00,VWS V14.00,2013-07-05 00:00:00,
2013-07-04 19:03:00,81.6,68.7,29.89,SE,126,0.0,0.0,65,0.00,,---,0.35,111.00,VWS V14.00,2013-07-05 00:03:00,
2013-07-04 19:07:00,81.6,69.6,29.89,East,99,0.0,0.0,67,0.00,,---,0.35,56.00,VWS V14.00,2013-07-05 00:07:00,
2013-07-04 19:11:00,81.5,69.5,29.89,SSE,150,0.0,2.0,67,0.00,,---,0.35,51.00,VWS V14.00,2013-07-05 00:11:00,
2013-07-04 19:15:00,81.4,69.0,29.89,ESE,107,0.0,2.0,66,0.00,,---,0.35,46.00,VWS V14.00,2013-07-05 00:15:00,
2013-07-04 19:19:00,81.3,69.3,29.89,ESE,113,1.0,2.0,67,0.00,,---,0.35,40.00,VWS V14.00,2013-07-05 00:19:00,
2013-07-04 19:23:00,81.1,69.1,29.89,East,101,2.0,2.0,67,0.00,,---,0.35,37.00,VWS V14.00,2013-07-05 00:23:00,
2013-07-04 19:27:00,81.0,69.0,29.89,SSE,153,0.0,2.0,67,0.00,,---,0.35,32.00,VWS V14.00,2013-07-05 00:27:00,
2013-07-04 19:30:00,80.9,68.9,29.89,SSE,153,1.0,2.0,67,0.00,,---,0.35,30.00,VWS V14.00,2013-07-05 00:30:00,
2013-07-04 19:31:00,80.9,68.9,29.89,SE,144,0.0,1.0,67,0.00,,---,0.35,30.00,VWS V14.00,2013-07-05 00:31:00,
2013-07-04 19:35:00,80.8,68.8,29.89,East,94,0.0,1.0,67,0.00,,---,0.35,25.00,VWS V14.00,2013-07-05 00:35:00,
2013-07-04 19:39:00,80.7,68.7,29.89,East,94,0.0,1.0,67,0.00,,---,0.35,21.00,VWS V14.00,2013-07-05 00:39:00,
2013-07-04 19:43:00,80.6,68.6,29.89,East,94,0.0,1.0,67,0.00,,---,0.35,18.00,VWS V14.00,2013-07-05 00:43:00,
2013-07-04 19:47:00,80.5,69.0,29.90,East,94,0.0,1.0,68,0.00,,---,0.35,14.00,VWS V14.00,2013-07-05 00:47:00,
2013-07-04 19:51:00,80.4,68.4,29.90,East,94,0.0,1.0,67,0.00,,---,0.35,9.00,VWS V14.00,2013-07-05 00:51:00,
2013-07-04 19:55:00,80.4,68.9,29.90,East,94,0.0,1.0,68,0.00,,---,0.35,7.00,VWS V14.00,2013-07-05 00:55:00,
2013-07-04 19:59:00,80.3,69.2,29.90,East,94,0.0,1.0,69,0.00,,---,0.35,0.00,VWS V14.00,2013-07-05 00:59:00,
2013-07-04 20:00:00,80.4,69.7,29.90,East,94,0.0,1.0,70,0.00,,---,0.35,0.00,VWS V14.00,2013-07-05 01:00:00,
2013-07-04 20:03:00,80.3,70.1,29.90,East,93,0.0,0.0,71,0.00,,---,0.35,0.00,VWS V14.00,2013-07-05 01:03:00,
2013-07-04 20:08:00,80.3,70.1,29.90,East,93,0.0,0.0,71,0.00,,---,0.35,0.00,VWS V14.00,2013-07-05 01:08:00,
2013-07-04 20:12:00,80.3,70.5,29.90,East,93,0.0,0.0,72,0.00,,---,0.35,0.00,VWS V14.00,2013-07-05 01:12:00,
2013-07-04 20:16:00,80.2,70.8,29.90,East,93,0.0,0.0,73,0.00,,---,0.35,0.00,VWS V14.00,2013-07-05 01:16:00,
2013-07-04 20:20:00,80.1,70.7,29.90,East,93,0.0,0.0,73,0.00,,---,0.35,0.00,VWS V14.00,2013-07-05 01:20:00,
2013-07-04 20:24:00,80.0,70.6,29.90,East,94,0.0,0.0,73,0.00,,---,0.35,0.00,VWS V14.00,2013-07-05 01:24:00,
2013-07-04 20:28:00,79.9,70.5,29.90,East,94,0.0,0.0,73,0.00,,---,0.35,0.00,VWS V14.00,2013-07-05 01:28:00,
2013-07-04 20:30:00,79.8,70.4,29.90,East,94,0.0,0.0,73,0.00,,---,0.35,0.00,VWS V14.00,2013-07-05 01:30:00,
2013-07-04 20:32:00,79.7,70.3,29.90,East,94,0.0,0.0,73,0.00,,---,0.35,0.00,VWS V14.00,2013-07-05 01:32:00,
2013-07-04 20:36:00,79.6,70.6,29.90,East,94,0.0,0.0,74,0.00,,---,0.35,0.00,VWS V14.00,2013-07-05 01:36:00,
2013-07-04 20:40:00,79.5,70.1,29.90,East,94,0.0,0.0,73,0.00,,---,0.35,0.00,VWS V14.00,2013-07-05 01:40:00,
2013-07-04 20:44:00,79.4,69.6,29.90,East,101,0.0,0.0,72,0.00,,---,0.35,0.00,VWS V14.00,2013-07-05 01:44:00,
2013-07-04 20:48:00,79.2,70.2,29.90,East,101,0.0,0.0,74,0.00,,---,0.35,0.00,VWS V14.00,2013-07-05 01:48:00,
2013-07-04 20:52:00,78.9,69.9,29.90,SE,124,1.0,3.0,74,0.00,,---,0.35,0.00,VWS V14.00,2013-07-05 01:52:00,
2013-07-04 20:56:00,78.6,69.6,29.90,SE,131,0.0,3.0,74,0.00,,---,0.35,0.00,VWS V14.00,2013-07-05 01:56:00,
2013-07-04 21:00:00,78.4,69.4,29.90,SE,131,2.0,3.0,74,0.00,,---,0.35,0.00,VWS V14.00,2013-07-05 02:00:00,
2013-07-04 21:04:00,78.2,69.2,29.90,SE,131,2.0,2.0,74,0.00,,---,0.35,0.00,VWS V14.00,2013-07-05 02:04:00,
2013-07-04 21:08:00,78.0,69.1,29.90,SE,130,1.0,2.0,74,0.00,,---,0.35,0.00,VWS V14.00,2013-07-05 02:08:00,
2013-07-04 21:12:00,78.0,68.7,29.90,SE,130,1.0,2.0,73,0.00,,---,0.35,0.00,VWS V14.00,2013-07-05 02:12:00,
2013-07-04 21:16:00,77.8,68.9,29.91,SE,130,2.0,2.0,74,0.00,,---,0.35,0.00,VWS V14.00,2013-07-05 02:16:00,
2013-07-04 21:20:00,77.7,69.2,29.91,SE,136,1.0,2.0,75,0.00,,---,0.35,0.00,VWS V14.00,2013-07-05 02:20:00,
2013-07-04 21:24:00,77.5,69.0,29.91,SE,137,1.0,2.0,75,0.00,,---,0.35,0.00,VWS V14.00,2013-07-05 02:24:00,
2013-07-04 21:28:00,77.2,68.3,29.91,SE,136,2.0,2.0,74,0.00,,---,0.35,0.00,VWS V14.00,2013-07-05 02:28:00,
2013-07-04 21:30:00,77.1,68.6,29.91,SE,136,0.0,2.0,75,0.00,,---,0.35,0.00,VWS V14.00,2013-07-05 02:30:00,
2013-07-04 21:32:00,77.1,68.2,29.91,SE,136,2.0,2.0,74,0.00,,---,0.35,0.00,VWS V14.00,2013-07-05 02:32:00,
2013-07-04 21:36:00,76.9,68.0,29.91,SE,136,2.0,3.0,74,0.00,,---,0.35,0.00,VWS V14.00,2013-07-05 02:36:00,
2013-07-04 21:40:00,76.7,67.8,29.91,SE,137,1.0,3.0,74,0.00,,---,0.35,0.00,VWS V14.00,2013-07-05 02:40:00,
2013-07-04 21:44:00,76.5,67.2,29.91,SE,137,0.0,3.0,73,0.00,,---,0.35,0.00,VWS V14.00,2013-07-05 02:44:00,
2013-07-04 21:48:00,76.3,67.0,29.91,SE,137,0.0,3.0,73,0.00,,---,0.35,0.00,VWS V14.00,2013-07-05 02:48:00,
2013-07-04 21:52:00,76.2,66.9,29.91,SE,137,3.0,3.0,73,0.00,,---,0.35,0.00,VWS V14.00,2013-07-05 02:52:00,
2013-07-04 21:57:00,76.0,67.1,29.91,SE,138,2.0,3.0,74,0.00,,---,0.35,0.00,VWS V14.00,2013-07-05 02:57:00,
2013-07-04 22:00:00,75.9,66.6,29.92,SE,138,3.0,4.0,73,0.00,,---,0.35,0.00,VWS V14.00,2013-07-05 03:00:00,
2013-07-04 22:01:00,75.9,66.6,29.92,SE,138,2.0,3.0,73,0.00,,---,0.35,0.00,VWS V14.00,2013-07-05 03:01:00,
2013-07-04 22:05:00,75.8,66.5,29.92,SE,138,1.0,4.0,73,0.00,,---,0.35,0.00,VWS V14.00,2013-07-05 03:05:00,
2013-07-04 22:09:00,75.6,66.3,29.92,SE,139,1.0,4.0,73,0.00,,---,0.35,0.00,VWS V14.00,2013-07-05 03:09:00,
2013-07-04 22:13:00,75.5,66.2,29.92,SE,139,1.0,4.0,73,0.00,,---,0.35,0.00,VWS V14.00,2013-07-05 03:13:00,
2013-07-04 22:17:00,75.4,66.2,29.91,SE,139,1.0,4.0,73,0.00,,---,0.35,0.00,VWS V14.00,2013-07-05 03:17:00,
2013-07-04 22:21:00,75.3,66.1,29.91,SE,138,2.0,4.0,73,0.00,,---,0.35,0.00,VWS V14.00,2013-07-05 03:21:00,
2013-07-04 22:25:00,75.2,66.3,29.91,SE,139,3.0,4.0,74,0.00,,---,0.35,0.00,VWS V14.00,2013-07-05 03:25:00,
2013-07-04 22:29:00,75.1,65.9,29.91,SE,139,3.0,4.0,73,0.00,,---,0.35,0.00,VWS V14.00,2013-07-05 03:29:00,
2013-07-04 22:30:00,75.0,65.8,29.91,SE,139,2.0,4.0,73,0.00,,---,0.35,0.00,VWS V14.00,2013-07-05 03:30:00,
2013-07-04 22:33:00,75.0,65.8,29.91,SE,139,2.0,4.0,73,0.00,,---,0.35,0.00,VWS V14.00,2013-07-05 03:33:00,
2013-07-04 22:37:00,74.9,65.7,29.91,SE,138,3.0,4.0,73,0.00,,---,0.35,0.00,VWS V14.00,2013-07-05 03:37:00,
2013-07-04 22:41:00,74.8,65.2,29.91,SE,138,3.0,4.0,72,0.00,,---,0.35,0.00,VWS V14.00,2013-07-05 03:41:00,
2013-07-04 22:45:00,74.8,65.2,29.92,SE,138,0.0,4.0,72,0.00,,---,0.35,0.00,VWS V14.00,2013-07-05 03:45:00,
2013-07-04 22:49:00,74.8,64.8,29.92,SE,138,0.0,4.0,71,0.00,,---,0.35,0.00,VWS V14.00,2013-07-05 03:49:00,
2013-07-04 22:53:00,74.8,64.8,29.92,SE,138,0.0,4.0,71,0.00,,---,0.35,0.00,VWS V14.00,2013-07-05 03:53:00,
2013-07-04 22:57:00,74.7,65.1,29.92,SE,138,0.0,4.0,72,0.00,,---,0.35,0.00,VWS V14.00,2013-07-05 03:57:00,
2013-07-04 23:00:00,74.7,65.1,29.92,SE,138,0.0,4.0,72,0.00,,---,0.35,0.00,VWS V14.00,2013-07-05 04:00:00,
2013-07-04 23:01:00,74.7,65.1,29.92,SE,138,0.0,0.0,72,0.00,,---,0.35,0.00,VWS V14.00,2013-07-05 04:01:00,
2013-07-04 23:05:00,74.6,64.6,29.92,SE,138,0.0,0.0,71,0.00,,---,0.35,0.00,VWS V14.00,2013-07-05 04:05:00,
2013-07-04 23:09:00,74.5,64.5,29.92,SE,138,0.0,0.0,71,0.00,,---,0.35,0.00,VWS V14.00,2013-07-05 04:09:00,
2013-07-04 23:13:00,74.6,66.2,29.92,SE,138,0.0,0.0,75,0.00,,---,0.35,0.00,VWS V14.00,2013-07-05 04:13:00,
2013-07-04 23:17:00,74.5,66.1,29.92,SE,138,0.0,0.0,75,0.00,,---,0.35,0.00,VWS V14.00,2013-07-05 04:17:00,
2013-07-04 23:21:00,74.4,65.2,29.92,SE,138,0.0,0.0,73,0.00,,---,0.35,0.00,VWS V14.00,2013-07-05 04:21:00,
2013-07-04 23:26:00,74.3,65.5,29.92,SE,138,0.0,0.0,74,0.00,,---,0.35,0.00,VWS V14.00,2013-07-05 04:26:00,
2013-07-04 23:30:00,74.2,65.4,29.92,SE,138,0.0,0.0,74,0.00,,---,0.35,0.00,VWS V14.00,2013-07-05 04:30:00,
2013-07-04 23:34:00,74.1,65.3,29.92,SE,138,0.0,0.0,74,0.00,,---,0.35,0.00,VWS V14.00,2013-07-05 04:34:00,
2013-07-04 23:38:00,73.9,65.5,29.92,SE,138,0.0,3.0,75,0.00,,---,0.35,0.00,VWS V14.00,2013-07-05 04:38:00,
2013-07-04 23:42:00,73.7,64.9,29.92,SE,140,0.0,3.0,74,0.00,,---,0.35,0.00,VWS V14.00,2013-07-05 04:42:00,
2013-07-04 23:46:00,73.6,65.2,29.92,SE,140,0.0,3.0,75,0.00,,---,0.35,0.00,VWS V14.00,2013-07-05 04:46:00,
2013-07-04 23:50:00,73.5,65.1,29.92,SE,140,0.0,3.0,75,0.00,,---,0.35,0.00,VWS V14.00,2013-07-05 04:50:00,
2013-07-04 23:54:00,73.5,65.1,29.92,SE,140,0.0,3.0,75,0.00,,---,0.35,0.00,VWS V14.00,2013-07-05 04:54:00,
2013-07-04 23:58:00,73.4,65.0,29.92,SE,140,0.0,3.0,75,0.00,,---,0.35,0.00,VWS V14.00,2013-07-05 04:58:00,